Flag for U.S.A. Weather past 2 weeks in Lafayette, Indiana, U.S.A.

Now
70 °F

Overcast.


Feels Like: 67 °F
Forecast: 64 / 78 °F
Wind: 5 mph from Southwest

Location: Purdue University Airport

Current Time: Sep 2, 2014 at 1:01:05 PM

Latest Report: Sep 2, 2014 at 11:54 AM


Visibility: 10 mi

Pressure: 29.94 "Hg

Humidity: 90%

Dew point: 67 °F

Location of LafayetteLocation

Historic Weather in Lafayette — Graph

°F

Lafayette temperature yesterday

Maximum temperature yesterday: 83 °F (at 4:54 PM)
Minimum temperature yesterday: 68 °F (at 11:54 PM)
Average temperature yesterday: 75 °F

Past Weeks' High & Low Weather Summary

 TemperatureHumidityPressure
High88 °F (Aug 25, 3:54 PM)100% (Aug 18, 11:54 PM)30.11 "Hg (Aug 18, 11:54 PM)
Low61 °F (Aug 20, 7:54 AM)56% (Aug 28, 3:54 PM)29.75 "Hg (Aug 19, 4:54 PM)
Average74 °F86%29.95 "Hg
* Reported Aug 18 11:54 AM — Sep 2 11:54 AM, Lafayette, Weather by CustomWeather, © 2014

Note: Actual official high and low records may vary slightly from our data, if they occured in-between our weather recording intervals... More about our weather records

Advertising

Lafayette weather history for previous 24 hours

 ConditionsComfort  
Time TempWeatherWind HumidityBarometerVisibility
11:54 AM
Sep 2
70 °FOvercast.5 mph90%29.94 "Hg10 mi
10:54 AM69 °FOvercast.8 mph93%29.94 "Hg10 mi
9:54 AM68 °FMostly cloudy.6 mph93%29.91 "Hg10 mi
8:54 AM67 °FLow clouds.6 mph97%29.90 "Hg10 mi
8:02 AM66 °FMostly cloudy.5 mph100%29.91 "Hg10 mi
7:54 AM66 °FMostly cloudy.5 mph100%29.89 "Hg10 mi
6:54 AM66 °FPassing clouds.5 mph100%29.89 "Hg9 mi
5:54 AM66 °FOvercast.3 mph100%29.88 "Hg10 mi
4:54 AM67 °FPartly cloudy.5 mph97%29.89 "Hg10 mi
4:02 AM67 °FLight rain. Passing clouds.5 mph97%29.92 "Hg10 mi
3:54 AM67 °FThundershowers. Partly cloudy.5 mph97%29.91 "Hg10 mi
3:02 AM69 °FThundershowers. Passing clouds.12 mph96%29.91 "Hg7 mi
2:54 AM69 °FLight rain. Passing clouds.12 mph93%29.91 "Hg9 mi
1:54 AM69 °FLight rain. Passing clouds.5 mph96%29.90 "Hg7 mi
12:54 AM70 °FPassing clouds.3 mph87%29.90 "Hg10 mi
11:54 PM
Sep 1
68 °FClear.No wind93%29.88 "Hg10 mi
10:54 PM69 °FClear.3 mph87%29.88 "Hg10 mi
9:54 PM71 °FClear.No wind81%29.87 "Hg10 mi
8:54 PM73 °FSunny.6 mph76%29.85 "Hg10 mi
7:54 PM77 °FSunny.6 mph66%29.84 "Hg10 mi
6:54 PM79 °FSunny.14 mph62%29.83 "Hg10 mi
5:54 PM80 °FScattered clouds.14 mph62%29.81 "Hg10 mi
4:54 PM83 °FPassing clouds.17 mph61%29.80 "Hg10 mi
3:54 PM81 °FPassing clouds.13 mph72%29.81 "Hg10 mi
2:54 PM79 °FBroken clouds.12 mph77%29.82 "Hg10 mi
1:54 PM79 °FMostly cloudy.10 mph77%29.81 "Hg10 mi
Weather by CustomWeather, © 2014

See weather overviewHow to use our weather pages